Wind_Speed
20 19 18 18 17 17 16 15 14 13 12 12 11 10 10 10 9 8 8 7 7 7 6 6 5 5 5 5 5 5 5 5 6 6 7 8 9 9 9 10 11 12 13
21 21 20 19 19 18 18 17 16 15 14 14 13 12 11 11 11 10 10 9 9 8 8 7 7 6 6 6 6 6 6 6 7 7 8 9 9 10 11 12 12 13 14
24 23 22 21 20 20 20 19 18 17 16 15 15 14 13 13 12 12 11 11 10 9 9 9 8 8 8 7 7 7 7 8 8 8 9 9 10 11 12 13 13 14 14
26 25 24 23 22 22 21 21 20 19 18 17 16 16 15 15 14 14 13 12 12 11 11 10 10 9 9 9 9 8 9 9 9 10 10 11 11 12 13 13 14 14 15
28 27 27 26 25 24 23 22 21 21 20 19 19 18 17 17 16 16 15 14 14 13 12 12 12 11 11 10 10 10 10 11 11 11 11 12 12 13 13 14 14 15 16
30 29 29 28 27 26 25 25 24 23 22 21 21 20 19 19 18 17 17 16 15 15 14 14 13 13 12 12 12 12 12 13 13 13 12 13 13 14 14 15 15 16 16
32 32 31 30 29 28 27 26 26 25 24 23 22 22 21 20 20 20 19 18 17 17 16 16 15 14 14 14 14 14 14 14 14 14 14 15 15 15 15 16 16 17 17
34 33 33 32 31 30 29 29 28 27 26 25 25 24 23 22 22 21 20 20 19 18 18 18 17 17 16 16 15 15 16 16 15 15 16 16 17 17 17 17 18 18 19
36 35 35 34 33 32 31 30 30 29 28 27 27 26 25 24 24 23 23 22 22 21 20 20 19 18 18 17 17 17 17 17 17 17 17 17 17 18 18 18 19 20 21
38 37 36 36 34 34 33 32 32 31 30 29 29 28 26 26 26 26 26 25 24 23 22 22 21 20 20 19 19 18 18 18 18 18 18 18 19 19 19 20 20 21 22
39 38 37 37 36 36 35 34 34 33 32 31 31 30 29 28 28 28 28 27 26 25 25 24 23 21 21 21 20 20 20 19 19 19 20 20 21 21 21 21 22 23 24
41 40 39 39 38 37 37 36 36 34 34 33 32 31 30 30 30 29 29 29 28 28 27 25 25 24 22 22 22 21 21 21 20 21 21 22 22 23 23 24 24 24 25
42 42 41 41 41 39 39 38 37 36 35 35 34 32 31 31 31 30 30 30 29 29 28 27 27 26 25 23 23 22 22 22 22 22 23 23 23 24 25 25 25 26 26
43 43 43 42 42 41 40 40 39 38 37 36 35 33 33 32 32 31 31 31 30 30 29 28 28 27 26 25 24 24 23 23 23 23 24 25 25 25 26 27 27 27 28
44 44 44 44 43 43 41 41 40 39 39 37 36 35 34 33 33 33 32 32 32 31 30 30 29 29 28 27 26 25 25 24 24 24 25 26 26 27 27 28 29 29 29
46 45 45 45 44 44 43 42 41 40 39 38 37 37 36 35 35 34 34 33 33 32 31 31 30 30 29 28 27 26 26 26 25 26 27 27 28 28 29 29 29 30 30
47 46 45 45 45 44 43 43 41 40 39 38 38 38 37 36 35 35 35 35 34 33 33 32 31 31 30 29 27 27 28 27 27 28 28 28 29 30 30 30 30 31 31
47 47 46 46 46 45 43 43 42 40 40 39 39 39 38 37 36 35 36 36 35 34 34 33 33 32 31 30 29 29 29 29 29 29 29 30 30 31 31 31 31 32 32
48 47 48 47 47 45 44 44 43 42 41 40 39 39 38 37 37 36 36 36 35 35 34 34 33 32 32 32 31 30 30 30 29 29 30 31 31 31 32 32 32 33 34
48 48 49 49 48 46 45 44 43 43 42 41 40 39 38 37 37 36 36 36 36 36 35 35 34 34 33 33 32 30 30 29 29 30 31 32 32 32 33 33 34 34 35
48 48 48 48 48 48 47 45 44 44 43 42 41 41 39 38 38 37 36 36 36 36 36 36 35 35 35 34 33 31 30 30 30 31 32 33 34 34 34 34 35 35 35
49 48 48 48 48 48 47 46 45 44 44 43 43 42 41 39 38 37 37 37 37 37 37 36 36 35 35 35 34 33 32 31 31 32 33 34 34 34 35 35 35 35 35
48 49 49 49 49 48 47 46 45 45 44 44 43 42 41 41 39 38 38 38 39 38 36 37 38 37 37 36 35 34 34 32 32 33 33 34 35 35 35 35 35 36 36
48 49 49 49 48 48 48 47 46 45 45 44 44 42 42 41 40 40 39 39 40 39 38 37 37 38 37 36 35 36 35 35 35 34 34 35 35 35 36 36 36 36 36
47 48 48 48 48 48 48 48 47 46 46 46 45 44 43 42 42 41 40 39 39 40 39 39 38 37 37 37 36 37 37 36 36 35 35 35 35 36 36 37 37 37 37
45 47 48 48 49 49 47 47 49 48 47 46 46 45 45 44 43 43 42 40 39 40 40 39 40 38 37 36 36 36 37 38 37 36 36 37 37 37 37 37 37 37 38
Wind_Direction
235 234 234 234 234 233 232 232 233 233 233 233 231 232 233 233 232 233 233 236 239 240 243 250 257 266 275 281 288 295 301 307 313 317 319 321 323 323 322 323 324 325 327
235 234 233 233 234 233 232 232 234 236 237 237 236 236 238 239 237 238 240 242 244 244 247 254 262 267 270 275 283 291 298 302 307 310 314 317 318 319 318 318 320 321 322
235 234 234 234 234 233 233 233 234 236 238 239 240 240 242 243 243 244 245 245 247 248 250 254 259 264 268 273 279 287 292 296 301 305 309 311 313 315 315 316 317 318 319
236 234 234 234 234 234 233 234 235 237 238 240 241 243 245 246 248 249 248 248 249 251 252 253 259 264 269 273 277 283 288 292 296 301 304 306 308 311 313 314 315 316 316
236 235 235 234 234 235 235 235 237 238 240 242 243 244 246 248 249 250 250 249 250 251 254 256 260 264 268 273 277 281 287 291 294 297 300 302 305 308 310 312 314 315 315
236 235 235 236 236 236 236 236 238 239 241 244 245 245 246 248 249 250 250 249 250 252 255 258 260 263 268 272 276 281 285 288 291 295 298 300 302 305 307 309 312 313 312
236 235 235 235 236 237 237 238 239 240 242 244 245 245 246 248 249 249 249 249 250 253 255 258 260 263 266 270 274 278 282 284 288 293 296 298 299 301 303 306 308 309 309
237 235 235 235 236 237 238 239 240 241 243 244 245 246 247 248 248 248 247 249 251 252 255 258 260 262 265 268 272 277 279 282 286 290 293 295 298 298 300 303 305 307 307
237 235 235 236 236 237 239 240 241 242 244 245 245 246 248 248 248 248 249 249 250 252 255 257 259 263 265 268 271 276 278 281 284 287 290 293 297 298 299 302 304 305 306
237 236 236 235 236 238 239 241 242 243 244 245 246 246 248 249 249 249 249 249 250 252 253 256 259 262 264 267 271 274 277 280 283 285 288 291 294 295 296 300 301 304 305
237 237 237 236 236 237 239 240 242 243 245 246 246 247 248 249 249 249 249 249 250 252 253 255 258 261 263 266 269 273 276 278 281 284 286 289 292 294 296 298 300 301 303
237 236 236 237 237 238 239 241 242 243 245 246 247 248 249 250 250 250 250 249 250 251 253 255 257 260 263 265 268 272 275 278 279 283 286 288 291 294 296 297 298 299 301
237 236 236 237 237 237 239 240 242 243 244 246 248 248 249 250 250 250 250 250 250 252 253 254 256 259 262 264 267 271 273 276 279 282 285 288 290 293 295 296 297 297 299
237 237 236 237 237 238 238 239 241 243 244 247 248 249 249 250 250 251 250 251 251 252 253 255 255 258 261 264 267 269 271 274 278 281 284 287 289 292 294 295 296 297 299
236 236 235 236 237 238 239 240 241 243 245 247 248 249 249 250 251 252 251 251 251 253 254 255 256 258 260 263 266 269 271 274 278 281 284 286 288 291 293 294 296 296 297
236 235 235 237 238 239 241 240 241 243 245 247 247 248 248 250 251 252 251 251 252 253 255 255 256 258 259 262 265 268 271 273 277 281 283 286 289 291 293 294 294 295 296
236 236 235 237 238 240 242 241 241 243 245 246 246 246 248 250 251 252 252 251 252 254 255 256 256 257 259 261 264 267 270 274 277 281 283 286 289 291 292 293 294 294 295
236 235 235 236 238 239 241 242 242 242 244 244 244 245 247 249 250 251 252 251 252 254 255 255 256 257 259 260 263 267 270 273 277 279 282 285 288 290 291 292 293 294 295
236 235 234 235 237 239 240 242 243 244 245 243 243 244 246 249 251 252 252 251 251 253 255 255 256 257 259 260 262 267 270 273 275 278 283 286 288 289 290 291 292 293 294
236 235 234 234 236 238 240 242 242 244 245 244 243 244 247 248 250 252 252 250 251 252 254 255 256 258 259 261 262 265 269 272 275 278 282 285 287 288 289 290 291 293 294
237 236 235 235 236 238 239 240 242 243 245 244 244 244 245 248 250 251 252 250 251 253 254 256 257 258 259 260 262 264 269 271 274 278 282 284 287 287 288 289 290 292 293
236 236 235 236 236 237 238 239 242 243 244 244 243 243 246 248 249 250 252 250 250 252 255 257 259 258 260 261 262 265 268 271 274 277 281 284 286 287 288 289 291 292 292
236 235 235 237 238 238 238 238 241 241 242 243 242 244 245 246 248 250 251 250 250 252 255 257 258 260 261 262 262 265 267 269 273 277 281 283 285 287 288 289 291 293 294
236 235 235 237 238 238 238 239 242 242 242 242 243 243 244 245 247 249 251 251 251 252 254 257 259 260 261 261 262 264 268 271 274 277 280 283 285 287 288 289 290 292 294
237 236 235 236 237 238 239 240 241 243 243 243 243 244 244 245 247 249 250 251 252 253 255 258 259 261 261 263 265 266 267 271 275 278 281 283 284 286 287 289 290 291 293
238 237 236 236 237 237 238 241 241 243 244 243 243 244 244 245 247 248 249 250 251 254 255 258 259 261 263 264 266 267 269 271 275 278 280 282 284 286 287 289 290 291 292
Height
5848 5850 5851 5853 5855 5856 5858 5859 5860 5861 5862 5863 5864 5865 5865 5866 5867 5867 5868 5869 5869 5870 5870 5870 5870 5870 5870 5870 5870 5870 5869 5869 5869 5868 5868 5867 5867 5866 5865 5865 5864 5863 5862
5845 5847 5848 5850 5852 5854 5855 5857 5858 5859 5860 5861 5862 5863 5863 5864 5865 5866 5866 5867 5867 5868 5868 5869 5869 5869 5869 5869 5869 5869 5868 5868 5867 5867 5866 5866 5865 5865 5864 5863 5862 5861 5860
5841 5843 5845 5847 5849 5850 5852 5854 5855 5857 5858 5858 5859 5860 5861 5862 5863 5864 5865 5865 5866 5866 5866 5867 5867 5867 5867 5867 5867 5867 5867 5866 5866 5865 5865 5864 5863 5863 5862 5861 5860 5859 5858
5837 5839 5841 5843 5845 5847 5849 5851 5852 5854 5855 5856 5857 5858 5859 5860 5860 5861 5862 5863 5863 5864 5864 5865 5865 5865 5865 5865 5865 5865 5865 5864 5864 5864 5863 5862 5862 5861 5860 5859 5858 5857 5856
5832 5834 5837 5839 5841 5843 5845 5847 5849 5850 5851 5852 5854 5855 5856 5856 5857 5858 5859 5860 5861 5861 5862 5862 5863 5863 5863 5863 5863 5863 5863 5862 5862 5861 5861 5860 5859 5859 5858 5857 5856 5854 5853
5826 5829 5832 5834 5836 5839 5841 5843 5844 5846 5848 5849 5850 5851 5852 5853 5854 5855 5856 5857 5858 5859 5859 5860 5860 5860 5861 5861 5861 5861 5860 5860 5860 5859 5858 5858 5857 5856 5855 5854 5853 5852 5851
5820 5823 5826 5828 5831 5833 5836 5838 5840 5841 5843 5844 5845 5846 5848 5849 5850 5851 5852 5853 5854 5856 5856 5857 5857 5857 5858 5858 5858 5858 5858 5857 5857 5857 5856 5855 5854 5853 5852 5851 5850 5849 5848
5814 5817 5820 5822 5825 5828 5830 5832 5834 5836 5838 5839 5840 5842 5843 5844 5845 5846 5847 5849 5850 5852 5853 5853 5853 5854 5854 5854 5855 5855 5854 5854 5854 5853 5853 5852 5851 5850 5849 5848 5847 5846 5845
5806 5810 5813 5816 5819 5822 5824 5826 5828 5830 5832 5833 5835 5836 5838 5839 5840 5841 5843 5844 5846 5847 5848 5849 5849 5850 5850 5851 5851 5851 5851 5851 5850 5850 5850 5849 5848 5847 5846 5845 5844 5843 5841
5799 5803 5806 5809 5812 5815 5817 5820 5822 5824 5826 5827 5829 5830 5832 5833 5835 5836 5837 5839 5841 5842 5843 5844 5845 5846 5846 5847 5847 5847 5847 5847 5847 5847 5846 5845 5844 5844 5842 5841 5840 5839 5837
5791 5794 5798 5801 5805 5808 5810 5813 5815 5817 5819 5821 5822 5824 5825 5827 5829 5830 5832 5833 5835 5837 5838 5839 5840 5841 5841 5842 5843 5843 5843 5843 5843 5843 5842 5842 5841 5840 5838 5837 5836 5834 5833
5782 5786 5790 5794 5797 5800 5803 5805 5808 5810 5813 5814 5816 5817 5819 5820 5822 5824 5826 5827 5829 5831 5832 5834 5835 5836 5837 5837 5838 5838 5838 5839 5839 5839 5838 5837 5837 5835 5834 5833 5831 5829 5828
5773 5777 5781 5785 5788 5792 5795 5797 5800 5803 5805 5807 5809 5811 5812 5814 5815 5817 5819 5821 5823 5824 5826 5828 5829 5831 5832 5833 5833 5833 5834 5834 5834 5834 5833 5833 5832 5831 5829 5828 5826 5824 5823
5763 5768 5772 5775 5779 5783 5785 5788 5792 5795 5798 5800 5802 5804 5805 5807 5809 5810 5812 5814 5816 5818 5820 5822 5823 5825 5826 5827 5828 5828 5828 5829 5829 5829 5828 5827 5826 5825 5824 5822 5821 5819 5817
5754 5758 5762 5765 5769 5773 5776 5780 5783 5786 5789 5792 5794 5796 5798 5800 5802 5804 5806 5808 5810 5812 5813 5815 5817 5819 5820 5822 5822 5823 5823 5823 5823 5823 5823 5822 5821 5820 5818 5816 5815 5813 5811
5743 5748 5753 5756 5760 5764 5767 5771 5774 5778 5780 5783 5786 5788 5791 5793 5795 5797 5799 5801 5803 5805 5807 5808 5810 5812 5814 5815 5816 5817 5817 5817 5817 5817 5817 5816 5815 5814 5812 5810 5808 5807 5805
5733 5738 5744 5748 5751 5755 5759 5762 5765 5768 5772 5774 5777 5780 5783 5785 5787 5790 5792 5794 5796 5798 5800 5802 5804 5805 5807 5809 5810 5811 5811 5811 5811 5811 5810 5810 5809 5807 5806 5804 5802 5800 5798
5723 5728 5734 5738 5741 5745 5749 5753 5756 5759 5762 5765 5768 5771 5774 5777 5779 5782 5784 5786 5788 5790 5793 5795 5797 5798 5800 5802 5803 5804 5805 5805 5805 5805 5804 5803 5802 5801 5799 5797 5795 5793 5791
5713 5718 5723 5728 5732 5736 5740 5744 5747 5750 5754 5757 5759 5763 5766 5769 5771 5773 5776 5778 5781 5783 5785 5787 5789 5791 5793 5795 5796 5798 5798 5799 5799 5798 5797 5796 5795 5794 5792 5790 5788 5786 5784
5703 5708 5713 5718 5722 5726 5730 5735 5738 5742 5745 5748 5751 5754 5757 5760 5763 5765 5768 5770 5772 5775 5778 5780 5782 5784 5785 5787 5789 5790 5791 5791 5791 5791 5790 5789 5788 5786 5784 5783 5781 5779 5776
5692 5698 5703 5708 5712 5717 5721 5726 5729 5733 5737 5740 5743 5746 5749 5752 5755 5758 5760 5763 5765 5768 5770 5772 5774 5776 5778 5779 5781 5783 5784 5784 5784 5783 5782 5781 5780 5778 5777 5775 5773 5771 5768
5683 5688 5692 5697 5702 5707 5711 5716 5720 5724 5728 5731 5734 5737 5740 5743 5747 5750 5752 5755 5758 5760 5762 5764 5766 5767 5770 5771 5773 5774 5776 5777 5776 5776 5775 5774 5772 5770 5768 5766 5764 5762 5760
5672 5678 5682 5687 5692 5697 5701 5706 5710 5714 5718 5722 5725 5729 5732 5735 5738 5741 5744 5746 5749 5752 5754 5756 5758 5760 5762 5763 5765 5766 5767 5768 5768 5768 5767 5765 5764 5762 5760 5758 5756 5754 5751
5662 5667 5672 5677 5682 5687 5691 5696 5700 5705 5709 5713 5717 5720 5723 5727 5730 5733 5735 5738 5741 5743 5746 5747 5749 5752 5753 5755 5756 5757 5759 5759 5760 5760 5759 5757 5756 5754 5752 5751 5748 5746 5744
5652 5657 5662 5667 5673 5677 5682 5686 5691 5695 5700 5703 5707 5711 5714 5718 5721 5724 5727 5730 5732 5735 5737 5739 5741 5743 5744 5746 5748 5749 5750 5750 5750 5751 5751 5750 5748 5746 5744 5742 5740 5738 5736
5643 5648 5653 5657 5663 5668 5673 5677 5682 5686 5690 5694 5698 5701 5705 5709 5712 5715 5718 5721 5723 5726 5728 5731 5733 5735 5736 5738 5739 5740 5741 5742 5742 5742 5742 5741 5740 5738 5736 5734 5732 5730 5727